| time (UTC) | temp F | wind direction | speed MPH | gust MPH | rain 1hr in | rain 24hr in | rain mn in | humidity % | barometer mb |
| 20260905020205 | 78 | 32 | 2.0 | 3.0 | 0.00 | 0.00 | 0.00 | 80 | 1018.7 |
| 20260905020200 | 78 | 347 | 2.0 | 4.0 | 0.00 | 0.00 | 0.00 | 80 | 1018.7 |
| 20260905020045 | 78 | 32 | 2.0 | 3.0 | 0.00 | 0.00 | 0.00 | 80 | 1018.7 |
| 20260905014026 | 78 | 355 | 0.0 | 2.0 | 0.00 | 0.00 | 0.00 | 80 | 1018.9 |
| 20260905013520 | 78 | 355 | 0.0 | 2.0 | 0.00 | 0.00 | 0.00 | 80 | 1018.9 |
| 20260905013020 | 78 | 355 | 2.0 | 3.0 | 0.00 | 0.00 | 0.00 | 79 | 1018.9 |
| 20260905012517 | 78 | 355 | 2.0 | 4.0 | 0.00 | 0.00 | 0.00 | 79 | 1019.0 |
| 20260905012017 | 78 | 355 | 0.0 | 4.0 | 0.00 | 0.00 | 0.00 | 79 | 1019.0 |
| 20260905011512 | 78 | 356 | 0.0 | 3.0 | 0.00 | 0.00 | 0.00 | 78 | 1019.0 |
| 20260905011012 | 79 | 356 | 0.0 | 2.0 | 0.00 | 0.00 | 0.00 | 78 | 1019.0 |
| 20260905010510 | 79 | 356 | 0.0 | 2.0 | 0.00 | 0.00 | 0.00 | 77 | 1019.0 |
| 20260905010139 | 79 | 356 | 2.0 | 4.0 | 0.00 | 0.00 | 0.00 | 76 | 1018.9 |
| 20260905010023 | 79 | 356 | 2.0 | 3.0 | 0.00 | 0.00 | 0.00 | 77 | 1019.0 |
| 20260905004930 | 79 | 355 | 2.0 | 4.0 | 0.00 | 0.00 | 0.00 | 75 | 1018.9 |
| 20260905004649 | 80 | 10 | 2.0 | 3.0 | 0.00 | 0.00 | 0.00 | 75 | 1018.9 |
| 20260905003928 | 80 | 13 | 2.0 | 3.0 | 0.00 | 0.00 | 0.00 | 76 | 1019.2 |
| 20260905003428 | 80 | 66 | 2.0 | 3.0 | 0.00 | 0.00 | 0.00 | 74 | 1019.2 |
| 20260905002918 | 81 | 70 | 2.0 | 4.0 | 0.00 | 0.00 | 0.00 | 73 | 1019.2 |
| 20260905002418 | 81 | 70 | 2.0 | 4.0 | 0.00 | 0.00 | 0.00 | 72 | 1019.2 |
| 20260905002138 | 82 | 7 | 4.0 | 6.0 | 0.00 | 0.00 | 0.00 | 73 | 1019.2 |
| 20260905001406 | 82 | 8 | 4.0 | 7.0 | 0.00 | 0.00 | 0.00 | 71 | 1019.2 |
| 20260905000902 | 82 | 4 | 1.0 | 7.0 | 0.00 | 0.00 | 0.00 | 71 | 1019.2 |
| 20260905000405 | 82 | 355 | 1.0 | 4.0 | 0.00 | 0.00 | 0.00 | 69 | 1019.2 |
| 20260904235856 | 83 | 273 | 2.0 | 2.0 | 0.00 | 0.00 | 0.00 | 70 | 1019.2 |
| 20260904235352 | 83 | 273 | 2.0 | 3.0 | 0.00 | 0.00 | 0.00 | 70 | 1019.0 |
| 20260904234851 | 83 | 273 | 3.0 | 4.0 | 0.00 | 0.00 | 0.00 | 69 | 1019.0 |
| 20260904234556 | 83 | 213 | 3.0 | 6.0 | 0.00 | 0.00 | 0.00 | 69 | 1019.0 |
| 20260904233833 | 83 | 206 | 2.0 | 6.0 | 0.00 | 0.00 | 0.00 | 68 | 1019.1 |
| 20260904233333 | 83 | 62 | 2.0 | 0.0 | 0.00 | 0.00 | 0.00 | 64 | 1019.1 |
| 20260904233038 | 83 | 62 | 2.0 | 2.0 | 0.00 | 0.00 | 0.00 | 64 | 1019.1 |
| 20260904232254 | 83 | 62 | 2.0 | 6.0 | 0.00 | 0.00 | 0.00 | 64 | 1018.9 |
| 20260904231755 | 83 | 62 | 2.0 | 6.0 | 0.00 | 0.00 | 0.00 | 63 | 1018.9 |
| 20260904231254 | 84 | 57 | 2.0 | 6.0 | 0.00 | 0.00 | 0.00 | 63 | 1018.9 |
| 20260904230755 | 84 | 74 | 1.0 | 3.0 | 0.00 | 0.00 | 0.00 | 62 | 1018.8 |
| 20260904230250 | 86 | 14 | 3.0 | 3.0 | 0.00 | 0.00 | 0.00 | 61 | 1018.8 |
| 20260904230009 | 86 | 14 | 3.0 | 3.0 | 0.00 | 0.00 | 0.00 | 61 | 1018.8 |
| 20260904225228 | 86 | 14 | 3.0 | 4.0 | 0.00 | 0.00 | 0.00 | 61 | 1018.8 |
| 20260904224728 | 86 | 335 | 3.0 | 5.0 | 0.00 | 0.00 | 0.00 | 60 | 1018.8 |
| 20260904224228 | 87 | 77 | 3.0 | 10.0 | 0.00 | 0.00 | 0.00 | 59 | 1018.8 |
| 20260904223727 | 89 | 99 | 3.0 | 10.0 | 0.00 | 0.00 | 0.00 | 56 | 1018.8 |
| 20260904223443 | 92 | 3 | 3.0 | 7.0 | 0.00 | 0.00 | 0.00 | 56 | 1018.8 |
| 20260904222728 | 94 | 20 | 2.0 | 7.0 | 0.00 | 0.00 | 0.00 | 53 | 1018.2 |
| 20260904222228 | 96 | 352 | 2.0 | 5.0 | 0.00 | 0.00 | 0.00 | 50 | 1018.2 |
| 20260904221723 | 96 | 9 | 2.0 | 5.0 | 0.00 | 0.00 | 0.00 | 49 | 1018.2 |
| 20260904221657 | 96 | 330 | 2.0 | 5.0 | 0.00 | 0.00 | 0.00 | 48 | 1018.3 |
| 20260904220717 | 96 | 12 | 1.0 | 3.0 | 0.00 | 0.00 | 0.00 | 51 | 1018.3 |
| 20260904220216 | 95 | 255 | 1.0 | 2.0 | 0.00 | 0.00 | 0.00 | 51 | 1018.3 |
| 20260904215715 | 95 | 255 | 1.0 | 3.0 | 0.00 | 0.00 | 0.00 | 50 | 1018.2 |
| 20260904215413 | 95 | 255 | 1.0 | 3.0 | 0.00 | 0.00 | 0.00 | 50 | 1018.2 |
| 20260904214645 | 96 | 256 | 2.0 | 4.0 | 0.00 | 0.00 | 0.00 | 51 | 1018.2 |
| 20260904214403 | 96 | 262 | 2.0 | 5.0 | 0.00 | 0.00 | 0.00 | 49 | 1018.1 |
| 20260904213632 | 96 | 8 | 2.0 | 5.0 | 0.00 | 0.00 | 0.00 | 48 | 1018.1 |
| 20260904213133 | 96 | 203 | 2.0 | 4.0 | 0.00 | 0.00 | 0.00 | 50 | 1018.1 |
| 20260904212627 | 96 | 203 | 3.0 | 5.0 | 0.00 | 0.00 | 0.00 | 51 | 1018.1 |
| 20260904212127 | 96 | 260 | 3.0 | 6.0 | 0.00 | 0.00 | 0.00 | 48 | 1018.1 |
| 20260904211627 | 96 | 260 | 2.0 | 6.0 | 0.00 | 0.00 | 0.00 | 50 | 1018.1 |
| 20260904211127 | 96 | 210 | 2.0 | 5.0 | 0.00 | 0.00 | 0.00 | 50 | 1018.2 |
| 20260904210852 | 96 | 254 | 2.0 | 4.0 | 0.00 | 0.00 | 0.00 | 49 | 1018.2 |
| 20260904210130 | 96 | 318 | 2.0 | 5.0 | 0.00 | 0.00 | 0.00 | 48 | 1018.2 |
| 20260904205848 | 96 | 254 | 3.0 | 6.0 | 0.00 | 0.00 | 0.00 | 48 | 1018.5 |
| 20260904205124 | 96 | 212 | 3.0 | 6.0 | 0.00 | 0.00 | 0.00 | 49 | 1018.5 |
| 20260904204623 | 96 | 204 | 2.0 | 5.0 | 0.00 | 0.00 | 0.00 | 51 | 1018.5 |
| 20260904204347 | 96 | 212 | 2.0 | 5.0 | 0.00 | 0.00 | 0.00 | 50 | 1018.6 |
| 20260904204114 | 96 | 199 | 4.0 | 6.0 | 0.00 | 0.00 | 0.00 | 48 | 1018.6 |
| 20260904203120 | 96 | 192 | 4.0 | 9.0 | 0.00 | 0.00 | 0.00 | 49 | 1018.6 |
| 20260904202619 | 97 | 186 | 3.0 | 9.0 | 0.00 | 0.00 | 0.00 | 48 | 1018.6 |
| 20260904202119 | 98 | 204 | 3.0 | 4.0 | 0.00 | 0.00 | 0.00 | 49 | 1018.6 |
| 20260904201619 | 97 | 247 | 3.0 | 3.0 | 0.00 | 0.00 | 0.00 | 48 | 1018.6 |
| 20260904201039 | 97 | 247 | 3.0 | 4.0 | 0.00 | 0.00 | 0.00 | 48 | 1019.0 |
| 20260904200504 | 97 | 247 | 3.0 | 5.0 | 0.00 | 0.00 | 0.00 | 48 | 1019.0 |
| 20260904195951 | 97 | 203 | 3.0 | 6.0 | 0.00 | 0.00 | 0.00 | 49 | 1019.0 |
| 20260904195207 | 96 | 207 | 3.0 | 6.0 | 0.00 | 0.00 | 0.00 | 52 | 1019.1 |
| 20260904194708 | 96 | 163 | 3.0 | 6.0 | 0.00 | 0.00 | 0.00 | 49 | 1019.1 |
| 20260904193949 | 96 | 197 | 3.0 | 7.0 | 0.00 | 0.00 | 0.00 | 50 | 1019.3 |
| 20260904193450 | 95 | 208 | 3.0 | 7.0 | 0.00 | 0.00 | 0.00 | 51 | 1019.3 |
| 20260904193211 | 95 | 52 | 3.0 | 6.0 | 0.00 | 0.00 | 0.00 | 51 | 1019.3 |
| 20260904192441 | 95 | 283 | 3.0 | 6.0 | 0.00 | 0.00 | 0.00 | 52 | 1019.6 |
| 20260904191942 | 95 | 186 | 3.0 | 5.0 | 0.00 | 0.00 | 0.00 | 52 | 1019.6 |
| 20260904191440 | 95 | 169 | 3.0 | 6.0 | 0.00 | 0.00 | 0.00 | 52 | 1019.6 |
| 20260904190940 | 95 | 207 | 3.0 | 6.0 | 0.00 | 0.00 | 0.00 | 54 | 1019.6 |
| 20260904190442 | 95 | 227 | 3.0 | 6.0 | 0.00 | 0.00 | 0.00 | 53 | 1019.6 |
| 20260904185941 | 94 | 198 | 3.0 | 6.0 | 0.00 | 0.00 | 0.00 | 54 | 1019.6 |
| 20260904185437 | 94 | 234 | 3.0 | 5.0 | 0.00 | 0.00 | 0.00 | 54 | 1019.9 |
| 20260904184936 | 94 | 191 | 2.0 | 5.0 | 0.00 | 0.00 | 0.00 | 55 | 1019.9 |
| 20260904184437 | 94 | 195 | 2.0 | 5.0 | 0.00 | 0.00 | 0.00 | 57 | 1019.9 |
| 20260904184155 | 94 | 261 | 3.0 | 7.0 | 0.00 | 0.00 | 0.00 | 55 | 1020.1 |
| 20260904183704 | 94 | 211 | 3.0 | 7.0 | 0.00 | 0.00 | 0.00 | 55 | 1020.1 |
| 20260904183155 | 95 | 207 | 2.0 | 5.0 | 0.00 | 0.00 | 0.00 | 55 | 1020.1 |
| 20260904182437 | 94 | 170 | 2.0 | 5.0 | 0.00 | 0.00 | 0.00 | 55 | 1020.4 |
| 20260904181940 | 94 | 192 | 3.0 | 5.0 | 0.00 | 0.00 | 0.00 | 55 | 1020.4 |
| 20260904181440 | 94 | 187 | 3.0 | 9.0 | 0.00 | 0.00 | 0.00 | 57 | 1020.4 |
| 20260904181204 | 93 | 208 | 2.0 | 9.0 | 0.00 | 0.00 | 0.00 | 56 | 1020.6 |
| 20260904180440 | 93 | 167 | 2.0 | 5.0 | 0.00 | 0.00 | 0.00 | 57 | 1020.6 |
| 20260904175940 | 93 | 209 | 3.0 | 5.0 | 0.00 | 0.00 | 0.00 | 59 | 1020.6 |
| 20260904175440 | 92 | 232 | 3.0 | 6.0 | 0.00 | 0.00 | 0.00 | 60 | 1020.9 |
| 20260904174940 | 92 | 0 | 2.0 | 6.0 | 0.00 | 0.00 | 0.00 | 57 | 1020.9 |
| 20260904174701 | 92 | 179 | 2.0 | 6.0 | 0.00 | 0.00 | 0.00 | 59 | 1020.9 |
| 20260904173937 | 92 | 298 | 3.0 | 5.0 | 0.00 | 0.00 | 0.00 | 60 | 1020.9 |
| 20260904173436 | 91 | 249 | 3.0 | 5.0 | 0.00 | 0.00 | 0.00 | 61 | 1020.9 |
| 20260904172932 | 91 | 353 | 3.0 | 6.0 | 0.00 | 0.00 | 0.00 | 59 | 1020.9 |
| 20260904172432 | 91 | 202 | 3.0 | 6.0 | 0.00 | 0.00 | 0.00 | 59 | 1021.0 |
| 20260904171932 | 91 | 201 | 2.0 | 7.0 | 0.00 | 0.00 | 0.00 | 60 | 1021.0 |
| 20260904171432 | 91 | 255 | 2.0 | 7.0 | 0.00 | 0.00 | 0.00 | 63 | 1021.0 |
| 20260904170931 | 91 | 213 | 4.0 | 6.0 | 0.00 | 0.00 | 0.00 | 63 | 1021.2 |
| 20260904170432 | 90 | 193 | 4.0 | 6.0 | 0.00 | 0.00 | 0.00 | 61 | 1021.2 |
| 20260904165924 | 90 | 205 | 3.0 | 6.0 | 0.00 | 0.00 | 0.00 | 63 | 1021.2 |
| 20260904165424 | 90 | 220 | 3.0 | 6.0 | 0.00 | 0.00 | 0.00 | 62 | 1021.5 |
| 20260904164924 | 90 | 201 | 2.0 | 6.0 | 0.00 | 0.00 | 0.00 | 64 | 1021.5 |
| 20260904164425 | 89 | 188 | 2.0 | 6.0 | 0.00 | 0.00 | 0.00 | 64 | 1021.5 |
| 20260904163925 | 89 | 202 | 3.0 | 6.0 | 0.00 | 0.00 | 0.00 | 64 | 1021.6 |
| 20260904163422 | 89 | 188 | 3.0 | 6.0 | 0.00 | 0.00 | 0.00 | 64 | 1021.6 |
| 20260904162921 | 89 | 209 | 3.0 | 4.0 | 0.00 | 0.00 | 0.00 | 65 | 1021.6 |
| 20260904162425 | 87 | 220 | 3.0 | 4.0 | 0.00 | 0.00 | 0.00 | 69 | 1021.9 |
| 20260904161915 | 87 | 220 | 3.0 | 7.0 | 0.00 | 0.00 | 0.00 | 69 | 1021.9 |
| 20260904161403 | 87 | 220 | 3.0 | 7.0 | 0.00 | 0.00 | 0.00 | 69 | 1021.9 |
| 20260904160846 | 87 | 193 | 3.0 | 5.0 | 0.00 | 0.00 | 0.00 | 69 | 1021.9 |
| 20260904160347 | 87 | 203 | 3.0 | 6.0 | 0.00 | 0.00 | 0.00 | 68 | 1021.9 |
| 20260904155847 | 86 | 217 | 3.0 | 6.0 | 0.00 | 0.00 | 0.00 | 69 | 1021.9 |
| 20260904155347 | 86 | 209 | 3.0 | 5.0 | 0.00 | 0.00 | 0.00 | 70 | 1022.0 |
| 20260904154846 | 86 | 213 | 2.0 | 6.0 | 0.00 | 0.00 | 0.00 | 71 | 1022.0 |
| 20260904154831 | 85 | 205 | 2.0 | 6.0 | 0.00 | 0.00 | 0.00 | 72 | 1022.0 |
| 20260904153845 | 85 | 218 | 2.0 | 5.0 | 0.00 | 0.00 | 0.00 | 72 | 1022.0 |
| 20260904153345 | 85 | 153 | 2.0 | 5.0 | 0.00 | 0.00 | 0.00 | 72 | 1022.0 |
| 20260904153058 | 84 | 164 | 2.0 | 5.0 | 0.00 | 0.00 | 0.00 | 76 | 1022.0 |
| 20260904152339 | 84 | 30 | 2.0 | 4.0 | 0.00 | 0.00 | 0.00 | 76 | 1021.9 |
| 20260904151834 | 84 | 63 | 2.0 | 4.0 | 0.00 | 0.00 | 0.00 | 75 | 1021.9 |
| 20260904151328 | 83 | 208 | 2.0 | 4.0 | 0.00 | 0.00 | 0.00 | 75 | 1021.9 |
| 20260904150827 | 83 | 211 | 2.0 | 4.0 | 0.00 | 0.00 | 0.00 | 74 | 1022.0 |
| 20260904150322 | 83 | 198 | 2.0 | 4.0 | 0.00 | 0.00 | 0.00 | 76 | 1022.0 |
| 20260904145819 | 82 | 208 | 2.0 | 4.0 | 0.00 | 0.00 | 0.00 | 78 | 1022.0 |
| 20260904145322 | 82 | 180 | 2.0 | 4.0 | 0.00 | 0.00 | 0.00 | 79 | 1022.0 |
| 20260904144819 | 82 | 62 | 2.0 | 3.0 | 0.00 | 0.00 | 0.00 | 81 | 1022.0 |
| 20260904144317 | 81 | 184 | 2.0 | 3.0 | 0.00 | 0.00 | 0.00 | 81 | 1022.0 |
| 20260904143818 | 81 | 77 | 2.0 | 3.0 | 0.00 | 0.00 | 0.00 | 81 | 1022.1 |
| 20260904143316 | 81 | 77 | 2.0 | 4.0 | 0.00 | 0.00 | 0.00 | 83 | 1022.1 |
| 20260904142817 | 80 | 71 | 2.0 | 4.0 | 0.00 | 0.00 | 0.00 | 84 | 1022.1 |
| 20260904142535 | 80 | 173 | 2.0 | 4.0 | 0.00 | 0.00 | 0.00 | 84 | 1022.0 |
| 20260904141817 | 80 | 203 | 2.0 | 4.0 | 0.00 | 0.00 | 0.00 | 85 | 1022.0 |
| 20260904141315 | 79 | 77 | 2.0 | 4.0 | 0.00 | 0.00 | 0.00 | 85 | 1022.0 |
| 20260904140809 | 79 | 78 | 2.0 | 4.0 | 0.00 | 0.00 | 0.00 | 86 | 1021.9 |
| 20260904140309 | 79 | 359 | 2.0 | 4.0 | 0.00 | 0.00 | 0.00 | 86 | 1021.9 |
| 20260904135807 | 78 | 78 | 2.0 | 4.0 | 0.00 | 0.00 | 0.00 | 88 | 1021.9 |
| 20260904135535 | 78 | 45 | 2.0 | 3.0 | 0.00 | 0.00 | 0.00 | 88 | 1021.9 |
| 20260904134759 | 78 | 46 | 2.0 | 3.0 | 0.00 | 0.00 | 0.00 | 88 | 1021.9 |
| 20260904103037 | 73 | 13 | 2.0 | 3.0 | 0.00 | 0.00 | 0.00 | 98 | 1020.9 |
| 20260904102958 | 73 | 13 | 2.0 | 4.0 | 0.00 | 0.00 | 0.00 | 98 | 1020.7 |
| 20260904102025 | 73 | 13 | 2.0 | 4.0 | 0.00 | 0.00 | 0.00 | 98 | 1020.7 |
| 20260904101518 | 73 | 26 | 2.0 | 4.0 | 0.00 | 0.00 | 0.00 | 98 | 1020.7 |
| 20260904101016 | 73 | 16 | 2.0 | 4.0 | 0.00 | 0.00 | 0.00 | 97 | 1020.6 |
| 20260904100519 | 73 | 19 | 2.0 | 4.0 | 0.00 | 0.00 | 0.00 | 97 | 1020.6 |
| 20260904100157 | 73 | 13 | 2.0 | 4.0 | 0.00 | 0.00 | 0.00 | 98 | 1020.5 |
| 20260904100007 | 73 | 23 | 2.0 | 4.0 | 0.00 | 0.00 | 0.00 | 98 | 1020.6 |
| 20260904095040 | 73 | 13 | 2.0 | 4.0 | 0.00 | 0.00 | 0.00 | 98 | 1020.5 |
| 20260904094657 | 73 | 7 | 2.0 | 4.0 | 0.00 | 0.00 | 0.00 | 98 | 1020.5 |
| 20260904093952 | 73 | 7 | 2.0 | 4.0 | 0.00 | 0.00 | 0.00 | 98 | 1020.3 |
| 20260904093425 | 73 | 7 | 2.0 | 4.0 | 0.00 | 0.00 | 0.00 | 98 | 1020.3 |
| 20260904093004 | 73 | 3 | 2.0 | 4.0 | 0.00 | 0.00 | 0.00 | 98 | 1020.3 |
| 20260904092530 | 73 | 18 | 2.0 | 2.0 | 0.00 | 0.00 | 0.00 | 97 | 1020.2 |
| 20260904092448 | 73 | 5 | 2.0 | 4.0 | 0.00 | 0.00 | 0.00 | 98 | 1020.2 |
| 20260904092209 | 73 | 18 | 2.0 | 2.0 | 0.00 | 0.00 | 0.00 | 97 | 1020.2 |
| 20260904092031 | 73 | 1 | 0.0 | 4.0 | 0.00 | 0.00 | 0.00 | 98 | 1020.2 |
| 20260904091708 | 73 | 17 | 0.0 | 3.0 | 0.00 | 0.00 | 0.00 | 97 | 1020.2 |
| 20260904090513 | 73 | 17 | 2.0 | 2.0 | 0.00 | 0.00 | 0.00 | 97 | 1020.2 |
| 20260904090027 | 73 | 17 | 2.0 | 3.0 | 0.00 | 0.00 | 0.00 | 97 | 1020.2 |
| 20260904085408 | 73 | 18 | 2.0 | 3.0 | 0.00 | 0.00 | 0.00 | 97 | 1020.1 |
| 20260904084908 | 73 | 17 | 2.0 | 5.0 | 0.00 | 0.00 | 0.00 | 97 | 1020.1 |
| 20260904084631 | 73 | 14 | 2.0 | 5.0 | 0.00 | 0.00 | 0.00 | 97 | 1020.1 |
| 20260904083912 | 74 | 16 | 2.0 | 4.0 | 0.00 | 0.00 | 0.00 | 97 | 1019.9 |
| 20260904083407 | 74 | 15 | 2.0 | 4.0 | 0.00 | 0.00 | 0.00 | 97 | 1019.9 |
| 20260904082904 | 74 | 3 | 2.0 | 4.0 | 0.00 | 0.00 | 0.00 | 97 | 1019.9 |
| 20260904082855 | 74 | 5 | 2.0 | 4.0 | 0.00 | 0.00 | 0.00 | 97 | 1020.0 |
| 20260904081904 | 74 | 0 | 2.0 | 4.0 | 0.00 | 0.00 | 0.00 | 97 | 1020.0 |
| 20260904081844 | 74 | 0 | 2.0 | 4.0 | 0.00 | 0.00 | 0.00 | 97 | 1020.0 |
| 20260904080857 | 74 | 10 | 3.0 | 5.0 | 0.00 | 0.00 | 0.00 | 97 | 1020.1 |
| 20260904080356 | 74 | 350 | 3.0 | 5.0 | 0.00 | 0.00 | 0.00 | 97 | 1020.1 |
| 20260904075856 | 74 | 2 | 2.0 | 5.0 | 0.00 | 0.00 | 0.00 | 97 | 1020.1 |
| 20260904075354 | 74 | 13 | 3.0 | 2.0 | 0.00 | 0.00 | 0.00 | 96 | 1020.1 |
| 20260904074852 | 74 | 13 | 3.0 | 4.0 | 0.00 | 0.00 | 0.00 | 96 | 1020.1 |
| 20260904074610 | 74 | 13 | 3.0 | 4.0 | 0.00 | 0.00 | 0.00 | 96 | 1020.1 |
| 20260904073849 | 74 | 2 | 3.0 | 5.0 | 0.00 | 0.00 | 0.00 | 96 | 1020.0 |
| 20260904073344 | 74 | 13 | 3.0 | 5.0 | 0.00 | 0.00 | 0.00 | 96 | 1020.0 |
| 20260904072841 | 74 | 349 | 3.0 | 5.0 | 0.00 | 0.00 | 0.00 | 96 | 1020.0 |
| 20260904072341 | 74 | 12 | 3.0 | 5.0 | 0.00 | 0.00 | 0.00 | 96 | 1020.1 |
| 20260904071841 | 74 | 2 | 2.0 | 5.0 | 0.00 | 0.00 | 0.00 | 96 | 1020.1 |
| 20260904071337 | 74 | 9 | 2.0 | 4.0 | 0.00 | 0.00 | 0.00 | 96 | 1020.1 |
| 20260904070836 | 75 | 8 | 2.0 | 4.0 | 0.00 | 0.00 | 0.00 | 96 | 1020.2 |
| 20260904070337 | 75 | 4 | 2.0 | 4.0 | 0.00 | 0.00 | 0.00 | 96 | 1020.2 |
| 20260904065833 | 75 | 7 | 0.0 | 4.0 | 0.00 | 0.00 | 0.00 | 96 | 1020.2 |
| 20260904065558 | 75 | 24 | 0.0 | 3.0 | 0.00 | 0.00 | 0.00 | 96 | 1020.4 |
| 20260904065053 | 75 | 26 | 2.0 | 3.0 | 0.00 | 0.00 | 0.00 | 95 | 1020.4 |
| 20260904064334 | 75 | 27 | 2.0 | 3.0 | 0.00 | 0.00 | 0.00 | 95 | 1020.4 |
| 20260904063837 | 75 | 27 | 2.0 | 3.0 | 0.00 | 0.00 | 0.00 | 95 | 1020.6 |
| 20260904063331 | 75 | 27 | 2.0 | 3.0 | 0.00 | 0.00 | 0.00 | 95 | 1020.6 |
| 20260904063050 | 75 | 27 | 2.0 | 3.0 | 0.00 | 0.00 | 0.00 | 95 | 1020.6 |
| 20260904062326 | 76 | 13 | 2.0 | 3.0 | 0.00 | 0.00 | 0.00 | 95 | 1020.9 |
| 20260904061816 | 76 | 13 | 2.0 | 4.0 | 0.00 | 0.00 | 0.00 | 95 | 1020.9 |
| 20260904061543 | 76 | 13 | 2.0 | 4.0 | 0.00 | 0.00 | 0.00 | 95 | 1020.9 |
| 20260904060746 | 76 | 13 | 2.0 | 3.0 | 0.00 | 0.00 | 0.00 | 95 | 1020.9 |
| 20260904060241 | 76 | 13 | 2.0 | 3.0 | 0.00 | 0.00 | 0.00 | 95 | 1020.9 |
| 20260904055726 | 76 | 13 | 2.0 | 4.0 | 0.00 | 0.00 | 0.00 | 94 | 1021.0 |
| 20260904055216 | 76 | 13 | 2.0 | 4.0 | 0.00 | 0.00 | 0.00 | 94 | 1021.0 |
| 20260904054939 | 76 | 28 | 2.0 | 4.0 | 0.00 | 0.00 | 0.00 | 94 | 1021.0 |
| 20260904054136 | 76 | 28 | 2.0 | 4.0 | 0.00 | 0.00 | 0.00 | 94 | 1021.1 |
| 20260904053556 | 76 | 28 | 2.0 | 4.0 | 0.00 | 0.00 | 0.00 | 94 | 1021.1 |
| 20260904053027 | 76 | 3 | 0.0 | 4.0 | 0.00 | 0.00 | 0.00 | 94 | 1021.1 |
| 20260904052527 | 76 | 354 | 0.0 | 4.0 | 0.00 | 0.00 | 0.00 | 93 | 1021.3 |
| 20260904052006 | 76 | 354 | 1.0 | 2.0 | 0.00 | 0.00 | 0.00 | 93 | 1021.3 |
| 20260904051438 | 77 | 354 | 1.0 | 2.0 | 0.00 | 0.00 | 0.00 | 93 | 1021.3 |
| 20260904050938 | 77 | 354 | 1.0 | 0.0 | 0.00 | 0.00 | 0.00 | 91 | 1021.4 |
| 20260904050645 | 77 | 354 | 1.0 | 0.0 | 0.00 | 0.00 | 0.00 | 91 | 1021.4 |
| 20260904045916 | 77 | 354 | 1.0 | 1.0 | 0.00 | 0.00 | 0.00 | 91 | 1021.4 |
| 20260904045821 | 77 | 354 | 1.0 | 3.0 | 0.00 | 0.00 | 0.00 | 91 | 1021.5 |
| 20260904044824 | 77 | 354 | 3.0 | 5.0 | 0.00 | 0.00 | 0.00 | 91 | 1021.5 |
| 20260904044321 | 77 | 354 | 3.0 | 5.0 | 0.00 | 0.00 | 0.00 | 91 | 1021.5 |
| 20260904044043 | 77 | 13 | 2.0 | 5.0 | 0.00 | 0.00 | 0.00 | 91 | 1021.3 |
| 20260904043321 | 78 | 7 | 2.0 | 4.0 | 0.00 | 0.00 | 0.00 | 90 | 1021.3 |
| 20260904042824 | 78 | 14 | 2.0 | 4.0 | 0.00 | 0.00 | 0.00 | 90 | 1021.3 |
| 20260904042241 | 78 | 4 | 2.0 | 4.0 | 0.00 | 0.00 | 0.00 | 90 | 1021.4 |
| 20260904041742 | 78 | 5 | 2.0 | 4.0 | 0.00 | 0.00 | 0.00 | 90 | 1021.4 |
| 20260904041224 | 78 | 9 | 2.0 | 3.0 | 0.00 | 0.00 | 0.00 | 90 | 1021.4 |
| 20260904040718 | 78 | 9 | 2.0 | 3.0 | 0.00 | 0.00 | 0.00 | 89 | 1021.4 |
| 20260904040435 | 78 | 9 | 2.0 | 4.0 | 0.00 | 0.00 | 0.00 | 89 | 1021.4 |
| 20260904035718 | 78 | 12 | 1.0 | 4.0 | 0.00 | 0.00 | 0.00 | 89 | 1021.4 |
| 20260904035219 | 78 | 355 | 1.0 | 4.0 | 0.00 | 0.00 | 0.00 | 89 | 1021.4 |
| 20260904034717 | 78 | 7 | 1.0 | 3.0 | 0.00 | 0.00 | 0.00 | 87 | 1021.4 |
| 20260904034131 | 78 | 7 | 1.0 | 3.0 | 0.00 | 0.00 | 0.00 | 87 | 1021.3 |
| 20260904033632 | 79 | 7 | 3.0 | 4.0 | 0.00 | 0.00 | 0.00 | 87 | 1021.3 |
| 20260904033131 | 79 | 7 | 3.0 | 5.0 | 0.00 | 0.00 | 0.00 | 86 | 1021.3 |
| 20260904032853 | 79 | 6 | 3.0 | 5.0 | 0.00 | 0.00 | 0.00 | 86 | 1021.4 |
| 20260904032131 | 79 | 12 | 4.0 | 6.0 | 0.00 | 0.00 | 0.00 | 86 | 1021.4 |
| 20260904031631 | 79 | 10 | 4.0 | 6.0 | 0.00 | 0.00 | 0.00 | 85 | 1021.4 |
| 20260904031356 | 79 | 356 | 4.0 | 5.0 | 0.00 | 0.00 | 0.00 | 85 | 1021.5 |
| 20260904030855 | 79 | 14 | 3.0 | 5.0 | 0.00 | 0.00 | 0.00 | 85 | 1021.5 |
| 20260904030129 | 80 | 358 | 3.0 | 5.0 | 0.00 | 0.00 | 0.00 | 85 | 1021.5 |
| 20260904025628 | 80 | 5 | 2.0 | 4.0 | 0.00 | 0.00 | 0.00 | 84 | 1021.4 |
| 20260904025128 | 80 | 11 | 2.0 | 3.0 | 0.00 | 0.00 | 0.00 | 84 | 1021.4 |
| 20260904024629 | 80 | 11 | 2.0 | 4.0 | 0.00 | 0.00 | 0.00 | 84 | 1021.4 |
| 20260904024129 | 80 | 11 | 2.0 | 4.0 | 0.00 | 0.00 | 0.00 | 83 | 1021.4 |
| 20260904023900 | 80 | 57 | 3.0 | 4.0 | 0.00 | 0.00 | 0.00 | 82 | 1021.4 |
| 20260904023318 | 81 | 341 | 2.0 | 4.0 | 0.00 | 0.00 | 0.00 | 81 | 1021.4 |
| 20260904022554 | 81 | 339 | 2.0 | 4.0 | 0.00 | 0.00 | 0.00 | 80 | 1021.4 |
| 20260904022318 | 81 | 352 | 2.0 | 4.0 | 0.00 | 0.00 | 0.00 | 79 | 1021.4 |
| 20260904021553 | 82 | 353 | 2.0 | 3.0 | 0.00 | 0.00 | 0.00 | 79 | 1021.4 |
| 20260904021053 | 82 | 353 | 0.0 | 3.0 | 0.00 | 0.00 | 0.00 | 79 | 1021.3 |
| 20260904020553 | 82 | 353 | 0.0 | 2.0 | 0.00 | 0.00 | 0.00 | 79 | 1021.3 |